Date String (YYYY-MM-DD hh:mm:ss) UTC,Instrument flags,absolute air pressure of the measurement (hPa),sample flow rate (lpm),inlet stack bypass flow (lpm),air temperature of the measurement (°C),ambient temperature measured by the external sensor (°C),aerosol sample conditioner tube jacket temperature (°C),OPC LED temperature (°C),internal box temperature (°C),relative humidity of the measurement (%),span deviation,mass concentration of particles derived from Lorenz-Mie calculation of OPC scattering (μg/m³),mass concentration of particles derived from Lorenz-Mie calculation of OPC scattering (μg/m³),mass concentration of particles derived from Lorenz-Mie calculation of OPC scattering (μg/m³)
DateTimeUTC,F1_M11,P_M11,Q1_M11,Q2_M11,T1_M11,T2_M11,T3_M11,T4_M11,T5_M11,U1_M11,ZSPAN_M11,X2_M11,X0_M11,X1_M11
2023-06-27 13:00:00,SystemResetWarning,0826.7,5.00,000.00,031.5,028.9,000.0,039.8,032.2,34.4,0002.2,0009.97,0026.17,0007.38
2023-06-27 13:01:00,SystemResetWarning,0826.8,5.00,000.00,031.5,028.4,000.0,039.8,032.3,34.8,0002.3,0010.08,0027.81,0007.46
2023-06-27 13:02:00,SystemResetWarning,0826.8,5.00,000.00,031.6,026.6,000.0,039.7,032.3,34.7,0002.0,0010.09,0029.05,0007.51
2023-06-27 13:03:00,SystemResetWarning,0826.8,5.00,000.00,031.5,026.0,000.0,039.7,032.2,34.7,0001.8,0010.04,0030.31,0007.53
2023-06-27 13:04:00,SystemResetWarning,0826.8,5.00,000.00,031.4,026.2,000.0,039.6,031.8,35.1,0001.8,0010.07,0031.14,0007.56
2023-06-27 13:05:00,SystemResetWarning,0826.8,5.02,000.00,031.4,026.5,000.0,039.7,031.8,35.4,0001.6,0010.09,0030.59,0007.57
2023-06-27 13:06:00,SystemResetWarning,0826.8,5.02,000.00,031.6,026.9,000.0,039.6,032.0,34.9,0001.8,0010.04,0028.52,0007.58
2023-06-27 13:07:00,SystemResetWarning,0826.8,4.96,000.00,031.8,027.2,000.0,039.6,032.1,34.2,0001.3,0010.01,0027.00,0007.62
2023-06-27 13:08:00,SystemResetWarning,0826.8,5.02,000.00,031.9,027.5,000.0,039.7,032.1,34.2,0000.9,0010.03,0026.03,0007.65
2023-06-27 13:09:00,SystemResetWarning,0826.9,5.01,000.00,031.9,027.7,000.0,039.7,032.1,34.3,0000.6,0009.96,0026.21,0007.67
2023-06-27 13:10:00,SystemResetWarning,0826.9,4.98,000.00,032.0,028.0,000.0,039.7,032.1,34.4,0000.9,0009.95,0026.48,0007.69
2023-06-27 13:11:00,SystemResetWarning,0826.9,5.00,000.00,032.0,028.1,000.0,039.8,032.1,34.0,0000.9,0009.94,0026.31,0007.69
2023-06-27 13:12:00,SystemResetWarning,0826.9,5.01,000.00,032.0,028.3,000.0,039.8,032.1,34.1,0001.0,0009.88,0025.60,0007.65
2023-06-27 13:13:00,SystemResetWarning,0826.9,4.99,000.00,031.9,028.4,000.0,039.9,032.1,34.2,0001.2,0009.89,0025.32,0007.63
2023-06-27 13:14:00,SystemResetWarning,0826.9,4.99,000.00,031.9,028.5,000.0,039.9,032.1,34.5,0001.3,0009.98,0025.50,0007.64
2023-06-27 13:15:00,SystemResetWarning,0826.9,5.00,000.00,031.9,028.6,000.0,040.0,032.1,34.6,0001.3,0010.03,0026.15,0007.64
2023-06-27 13:16:00,SystemResetWarning,0826.9,5.01,000.00,031.9,028.7,000.0,040.0,032.1,34.6,0001.6,0010.07,0026.22,0007.67
2023-06-27 13:17:00,SystemResetWarning,0827.0,5.01,000.00,031.9,028.7,000.0,040.0,032.2,34.4,0001.6,0010.12,0026.64,0007.67
2023-06-27 13:18:00,SystemResetWarning,0827.0,4.99,000.00,031.9,028.8,000.0,040.0,032.2,34.1,0001.9,0010.26,0027.36,0007.67
2023-06-27 13:19:00,SystemResetWarning,0827.0,4.99,000.00,031.9,028.8,000.0,040.0,032.2,33.9,0002.2,0010.30,0028.08,0007.66
2023-06-27 13:20:00,SystemResetWarning,0827.0,5.02,000.00,031.8,028.8,000.0,040.0,032.2,34.0,0002.7,0010.30,0027.92,0007.65
2023-06-27 13:21:00,SystemResetWarning,0827.0,5.01,000.00,031.8,028.9,000.0,040.0,032.2,34.2,0002.7,0010.30,0027.13,0007.65
2023-06-27 13:22:00,SystemResetWarning,0827.0,4.98,000.00,031.8,028.8,000.0,040.0,032.3,34.1,0002.9,0010.28,0028.19,0007.66
2023-06-27 13:23:00,SystemResetWarning,0826.9,4.99,000.00,031.8,027.1,000.0,040.0,032.3,34.3,0002.8,0010.38,0028.61,0007.70
2023-06-27 13:24:00,SystemResetWarning,0826.8,5.00,000.00,031.8,025.3,000.0,039.9,032.2,34.7,0002.9,0010.43,0027.81,0007.73
2023-06-27 13:25:00,SystemResetWarning,0826.9,5.00,000.00,031.7,024.9,000.0,039.8,032.1,34.9,0002.8,0010.37,0026.72,0007.74
2023-06-27 13:26:00,SystemResetWarning,0826.8,5.01,000.00,031.5,025.2,000.0,039.8,031.7,35.5,0003.0,0010.39,0025.08,0007.75
2023-06-27 13:27:00,SystemResetWarning,0826.9,5.01,000.00,031.6,025.7,000.0,039.8,031.7,36.0,0002.7,0010.29,0025.20,0007.75
2023-06-27 13:28:00,SystemResetWarning,0826.9,4.99,000.00,031.8,026.2,000.0,039.8,031.9,35.8,0002.8,0010.28,0026.56,0007.76
2023-06-27 13:29:00,SystemResetWarning,0826.8,5.00,000.00,032.1,026.6,000.0,039.8,032.0,35.3,0003.0,0010.19,0026.43,0007.76
2023-06-27 13:30:00,SystemResetWarning,0826.9,5.01,000.00,032.4,027.0,000.0,039.8,032.1,34.5,0003.0,0010.22,0026.31,0007.78
2023-06-27 13:31:00,SystemResetWarning,0827.0,4.98,000.00,032.6,027.3,000.0,039.8,032.2,34.3,0002.8,0010.27,0027.13,0007.79
2023-06-27 13:32:00,SystemResetWarning,0827.0,5.01,000.00,032.7,027.6,000.0,039.9,032.1,34.4,0002.8,0010.36,0028.57,0007.82
2023-06-27 13:33:00,SystemResetWarning,0827.0,5.01,000.00,032.8,027.8,000.0,040.0,032.1,34.3,0002.8,0010.42,0027.30,0007.86
2023-06-27 13:34:00,SystemResetWarning,0827.1,5.01,000.00,032.8,028.0,000.0,040.1,032.2,33.9,0002.9,0010.34,0026.29,0007.87
2023-06-27 13:35:00,SystemResetWarning,0827.1,4.99,000.00,032.8,028.2,000.0,040.2,032.2,34.0,0002.6,0010.28,0026.97,0007.85
2023-06-27 13:36:00,SystemResetWarning,0827.1,4.99,000.00,032.8,028.3,000.0,040.3,032.2,34.1,0002.7,0010.29,0028.63,0007.87
2023-06-27 13:37:00,SystemResetWarning,0827.1,5.02,000.00,032.8,028.4,000.0,040.4,032.2,33.7,0002.7,0010.26,0029.28,0007.87
2023-06-27 13:38:00,SystemResetWarning,0827.2,5.00,000.00,032.8,028.5,000.0,040.4,032.3,33.5,0003.1,0010.38,0029.49,0007.87
2023-06-27 13:39:00,SystemResetWarning,0827.2,4.99,000.00,032.7,028.6,000.0,040.5,032.3,34.1,0003.3,0010.43,0027.96,0007.87
2023-06-27 13:40:00,SystemResetWarning,0827.1,5.00,000.00,032.7,028.7,000.0,040.5,032.3,34.5,0003.1,0010.51,0027.91,0007.86
2023-06-27 13:41:00,SystemResetWarning,0827.2,5.00,000.00,032.7,028.8,000.0,040.6,032.4,34.5,0002.8,0010.46,0028.89,0007.86
2023-06-27 13:42:00,SystemResetWarning,0827.2,5.00,000.00,032.7,028.8,000.0,040.6,032.4,34.2,0002.7,0010.35,0028.08,0007.84
2023-06-27 13:43:00,SystemResetWarning,0827.2,5.01,000.00,032.6,028.9,000.0,040.6,032.4,34.6,0003.0,0010.32,0027.57,0007.82
2023-06-27 13:44:00,SystemResetWarning,0827.2,4.98,000.00,032.6,027.8,000.0,040.6,032.5,34.3,0002.9,0010.27,0027.08,0007.77
2023-06-27 13:45:00,SystemResetWarning,0827.1,5.00,000.00,032.6,025.9,000.0,040.5,032.4,33.9,0002.8,0010.30,0027.47,0007.76
2023-06-27 13:46:00,SystemResetWarning,0827.2,5.00,000.00,032.6,025.2,000.0,040.4,032.4,34.0,0002.6,0010.47,0027.69,0007.78
2023-06-27 13:47:00,SystemResetWarning,0827.1,5.01,000.00,032.4,025.3,000.0,040.4,032.1,34.5,0003.0,0010.55,0025.84,0007.79
2023-06-27 13:48:00,SystemResetWarning,0827.1,5.02,000.00,032.3,025.8,000.0,040.4,031.9,35.1,0003.0,0010.59,0026.96,0007.79
2023-06-27 13:49:00,SystemResetWarning,0827.1,4.99,000.00,032.3,026.2,000.0,040.3,032.0,34.5,0002.7,0010.59,0027.87,0007.81
2023-06-27 13:50:00,SystemResetWarning,0827.1,4.99,000.00,032.2,026.7,000.0,040.3,032.0,34.3,0002.2,0010.56,0028.54,0007.85
2023-06-27 13:51:00,SystemResetWarning,0827.1,5.02,000.00,032.2,027.0,000.0,040.3,032.0,34.7,0002.1,0010.57,0029.33,0007.89
2023-06-27 13:52:00,SystemResetWarning,0827.1,4.98,000.00,032.2,027.4,000.0,040.3,032.0,35.4,0002.6,0010.63,0028.28,0007.95
2023-06-27 13:53:00,SystemResetWarning,0827.2,5.03,000.00,032.3,027.6,000.0,040.3,032.1,35.1,0002.7,0010.70,0027.80,0008.01
2023-06-27 13:54:00,SystemResetWarning,0827.1,4.97,000.00,032.6,027.8,000.0,040.3,032.2,34.5,0002.0,0010.80,0028.26,0008.07
2023-06-27 13:55:00,SystemResetWarning,0827.2,5.01,000.00,032.7,028.0,000.0,040.3,032.3,34.6,0002.0,0010.85,0029.33,0008.11
2023-06-27 13:56:00,SystemResetWarning,0827.2,5.00,000.00,032.7,028.2,000.0,040.3,032.3,34.1,0001.9,0010.80,0029.28,0008.12
2023-06-27 13:57:00,SystemResetWarning,0827.2,4.98,000.00,032.8,028.3,000.0,040.4,032.3,34.1,0002.1,0010.73,0028.80,0008.14
2023-06-27 13:58:00,SystemResetWarning,0827.1,5.00,000.00,032.8,028.5,000.0,040.4,032.3,34.2,0002.2,0010.73,0029.08,0008.19
2023-06-27 13:59:00,SystemResetWarning,0827.2,5.01,000.00,032.8,028.5,000.0,040.5,032.3,34.6,0002.2,0010.73,0029.25,0008.22
